This is the latest recevied weather packets stored in our database for station/object KJ5IIV. If no packets are shown the sender has not sent any weather packets the latest 10 day(s).
| Time | Temp. | Humidity | Pressure | Rain* | Wind** | Luminosity | Snow |
|---|---|---|---|---|---|---|---|
| 1777819438 | 22.22° C | 51% | 1021.8 hPa | 0 mm | - | 569 W/m² | - |
| 1777819135 | 21.67° C | 53% | 1021.9 hPa | 0 mm | - | 559 W/m² | - |
| 1777818832 | 21.67° C | 50% | 1021.9 hPa | 0 mm | - | 540 W/m² | - |
| 1777818528 | 21.67° C | 51% | 1021.8 hPa | 0 mm | - | 523 W/m² | - |
| 1777818226 | 21.67° C | 52% | 1022.1 hPa | 0 mm | - | 501 W/m² | - |
| 1777817921 | 22.22° C | 51% | 1021.8 hPa | 0 mm | - | 477 W/m² | - |
| 1777817619 | 21.11° C | 54% | 1021.8 hPa | 0 mm | - | 453 W/m² | - |
| 1777817315 | 20.56° C | 54% | 1021.8 hPa | 0 mm | - | 425 W/m² | - |
| 1777817012 | 21.11° C | 50% | 1021.7 hPa | 0 mm | - | 408 W/m² | - |
| 1777816708 | 20.56° C | 52% | 1021.7 hPa | 0 mm | - | 378 W/m² | - |
| 1777816406 | 20.56° C | 51% | 1021.6 hPa | 0 mm | - | 365 W/m² | - |
| 1777816104 | 21.11° C | 54% | 1021.8 hPa | 0 mm | - | 349 W/m² | - |
| 1777815801 | 21.11° C | 56% | 1021.8 hPa | 0 mm | - | 332 W/m² | - |
| 1777815498 | 20.56° C | 57% | 1021.7 hPa | 0 mm | - | 309 W/m² | - |
| 1777815196 | 19.44° C | 57% | 1021.6 hPa | 0 mm | - | 288 W/m² | - |
| 1777814892 | 19.44° C | 62% | 1021.4 hPa | 0 mm | - | 280 W/m² | - |
| 1777814588 | 18.33° C | 72% | 1021.6 hPa | 0 mm | - | 263 W/m² | - |
| 1777814286 | 18.89° C | 72% | 1021.7 hPa | 0 mm | - | 243 W/m² | - |
| 1777813982 | 18.89° C | 67% | 1021.7 hPa | 0 mm | - | 227 W/m² | - |
| 1777813679 | 18.89° C | 63% | 1021.5 hPa | 0 mm | - | 210 W/m² | - |
| 1777813377 | 18.33° C | 67% | 1021.5 hPa | 0 mm | - | 190 W/m² | - |
| 1777813074 | 16.67° C | 69% | 1021.5 hPa | 0 mm | - | 176 W/m² | - |
| 1777812772 | 16.11° C | 74% | 1021.6 hPa | 0 mm | - | 168 W/m² | - |
| 1777812468 | 15° C | 80% | 1021.5 hPa | 0 mm | - | 123 W/m² | - |
| 1777812166 | 13.89° C | 83% | 1021.4 hPa | 0 mm | - | 97 W/m² | - |
* Rain latest hour (hover to see other rain measurements)
** Current wind speed in m/s (hover to see current wind gust speed)